Simao Miranda

Recruteur - Penafiel
23 Avr 2028
Dimanche
Processus

Personnalité

Adaptabilité (15) Ambition (9) Controverse (15) Loyauté (17) Pression (6) Professionnalisme (10) Sportivité (16) Tempérament (17)

Profil

Style d'entraînement Démocratique
Diplôme Continental A
Détermination 4
Gestion des joueurs 7
Motivation 5
Discipline 5
Satisfaction professionnelle
100%
Fatigue
0%
Rôle Recruteur
Salaire 53.6K p/s
Contrat 14.03.2030

Performance

Comportement Bon
Efficacité de l'entraînement
45%
Développement des joueurs
45%
Prévention des blessures
60%
Mise en place tactique
40%

Événements récents

A évalué un joueur maintenant
A participé à une réunion de recrutement maintenant
A évalué un joueur maintenant
A évalué un joueur maintenant
A participé à une réunion de recrutement 7j
A évalué un joueur 7j
A évalué un joueur 7j
A évalué un joueur 7j

Suivi en cours

67
Joueur Club Statut Capacité Confiance Observé Dernière observation Dernier vote
Tobiáš Pališčák Zlin Actif 97 / 103 40% 3 21.04.2028 -
Abubakar Adams Aduana Stars Actif 99 / 103 40% 1 21.04.2028 -
Makar Vysochenko Spartak Moscow Actif 98 / 93 40% 1 20.04.2028 -
Mattia Puzone Siracusa Actif 96 / 100 40% 1 20.04.2028 -
Itumeleng Jali Spezia Actif 105 / 113 40% 1 19.04.2028 -
Nicolò Moranduzzo Renate Actif 83 / 88 40% 1 19.04.2028 -
Tyler Fletcher Rotherham United Actif 99 / 107 40% 1 18.04.2028 -
Kamaldeen Atiemo Wa All Stars Actif 83 / 118 40% 1 18.04.2028 -
Artem Nosachev Spartak Moscow Actif 79 / 84 40% 1 17.04.2028 -
Nathan De Cat SC Freiburg Actif 133 / 137 40% 1 17.04.2028 -
Bernardo Lima Porto Actif 104 / 104 40% 1 14.04.2028 -
Germán Barbas Burgos Actif 103 / 127 40% 1 14.04.2028 -
Josh Nichols Oldham Athletic Actif 129 / 116 40% 1 13.04.2028 -
Jan Bürger Northampton Town Actif 109 / 125 40% 2 12.04.2028 -
Jorge Moreno Athletic Bilbao Actif 116 / 131 40% 1 12.04.2028 -
Bongani Jali Free State Stars Actif 105 / 111 40% 1 10.04.2028 -
Miguel Figueiredo Benfica Actif 124 / 138 40% 1 10.04.2028 -
Jorthy Mokio ADO Den Haag Actif 132 / 129 40% 1 09.04.2028 -
Musa Danjuma Umraniyespor Actif 105 / 95 40% 1 09.04.2028 -
Augusto Bando Ascoli Actif 108 / 108 40% 1 07.04.2028 -
Adnan Nainggolan KV Oostende Actif 104 / 123 40% 1 07.04.2028 -
Vinícius Lira São Paulo Actif 117 / 129 40% 1 06.04.2028 -
Martim Cunha Porto Actif 99 / 124 40% 1 05.04.2028 -
Konta Ismaily Actif 106 / 119 40% 1 05.04.2028 -
Lamine Bèye Portimonense Actif 102 / 119 40% 1 04.04.2028 -
Riquelme Thompson-Jones Accrington Stanley Actif 118 / 117 40% 1 04.04.2028 -
Pablo Lúcio St. Gallen Actif 123 / 125 40% 1 03.04.2028 -
Alani Maritimo Actif 102 / 116 40% 1 03.04.2028 -
Tiaguinho Silva Vizela Actif 98 / 105 51% 1 10.01.2028 -
Vasco Santos Oliveirense Actif 101 / 103 40% 1 14.06.2027 -
Cheveyo Tsawa Club Brugge Actif 110 / 133 40% 1 31.05.2027 -
Scott Twine Bristol City Actif 127 / 110 40% 1 26.01.2027 -
Sam Greenwood Bristol City Actif 135 / 116 40% 1 26.01.2027 -
Ivan Giraldo Valencia Actif 114 / 132 40% 1 11.01.2027 -
Lucas Lima Ceará Actif 112 / 127 40% 1 28.12.2026 -
Jack Rudoni Coventry City Actif 133 / 144 40% 2 26.12.2026 -
Yanis Begraoui Estoril Praia Actif 129 / 127 40% 1 26.12.2026 -
Juan Bezerra Zamalek Actif 131 / 115 40% 1 24.12.2026 -
Edoardo Bove Watford Actif 142 / 124 40% 1 24.12.2026 -
Marcelo Allende Mamelodi Sundowns Actif 131 / 123 40% 3 22.12.2026 -
Finn Azaz Southampton Actif 124 / 132 40% 1 22.12.2026 -
Lorougnon Gohi Académico de Viseu Actif 123 / 121 40% 3 18.12.2026 -
Sorba Thomas Stoke City Actif 135 / 120 40% 2 12.12.2026 -
Zé Leite Moreirense Actif 112 / 118 40% 1 12.12.2026 -
Tristan Degreef Anderlecht Actif 133 / 114 40% 1 05.12.2026 -
Pedro Vite Pumas UNAM Actif 128 / 126 40% 1 04.12.2026 -
Petar Stanić Ludogorets Actif 146 / 138 40% 1 30.11.2026 -
Simo Maritimo Actif 110 / 115 40% 1 30.11.2026 -
Ilias Sebaoui Sint-Truiden Actif 124 / 129 40% 1 28.11.2026 -
Amar Memić Viktoria Plzen Actif 124 / 122 40% 2 27.11.2026 -
Gabriel Silva Braga Actif 139 / 122 40% 1 27.11.2026 -
Lee Hyun-Ju Arouca Actif 116 / 119 40% 1 24.11.2026 -
Bongani Zungu Ajax Cape Town Actif 131 / 110 40% 1 22.11.2026 -
Jack McGlynn Stoke City Actif 116 / 142 40% 1 22.11.2026 -
Soma Anzai FC Tokyo Actif 123 / 106 40% 2 18.11.2026 -
Abraham Marcus Estrela da Amadora Actif 130 / 125 40% 1 10.11.2026 -
Tariq Lamptey Queens Park Rangers Actif 120 / 131 40% 1 09.11.2026 -
Ezequiel Bullaude Santos Laguna Actif 114 / 131 40% 1 07.11.2026 -
Jordan van der Gaag Leiria Actif 113 / 99 40% 1 06.11.2026 -
Bradley Zwane SuperSport United Actif 100 / 129 40% 1 06.11.2026 -
Martín Ojeda Orlando City Actif 137 / 145 40% 1 03.11.2026 -
Franco Zapiola Platense Actif 113 / 133 40% 1 02.11.2026 -
Jan Virgili Club Brugge Actif 135 / 121 40% 1 06.10.2026 -
Joaquín Pereyra Minnesota United FC Actif 132 / 132 40% 1 08.09.2026 -
Santi García Gil Vicente Actif 141 / 135 40% 1 08.09.2026 -
Emerson Batalla Atletico Bucaramanga Actif 110 / 126 40% 1 07.09.2026 -
Leandro Lozano Boca Juniors Actif 114 / 126 40% 1 07.09.2026 -